User: anonymous   Login
Location: Wawayanda State Park
(41.1833°N, 74.4333°W)
Time: 20:59:40
(UTC-04:00)
Language:

RESURS DK-1 - Orbit

View from above orbital plane
View from above orbital plane
View from above satellite
View from above satellite

Ground track
Ground track

The orbit data is extracted from the following two-line orbital elements,

1 29228U 06021A   16125.87917166  .00000603  00000-0  53503-4 0  9991
2 29228  69.9375  56.7005 0007877 250.5974 109.4322 15.01884388546796
Epoch (UTC): 04 May 2016 21:06:00
Eccentricity: 0.0007877
inclination: 69.9375°
perigee height: 555 km
apogee height: 566 km
right ascension of ascending node: 56.7005°
argument of perigee: 250.5974°
revolutions per day: 15.01884388
mean anomaly at epoch: 109.4322°
orbit number at epoch: 54679

The dashed part of the orbit path shows where the satellite is in the earth's shadow,  

DLR